This is the latest recevied weather packets stored in our database for station/object MIDVIL-WX. If no packets are shown the sender has not sent any weather packets the latest 10 day(s).
| Time | Temp. | Humidity | Pressure | Rain* | Wind** | Luminosity | Snow |
|---|---|---|---|---|---|---|---|
| 1778078731 | 8.89° C | 56% | 986.9 hPa | 0 mm | - | - | - |
| 1778077848 | 8.33° C | 56% | 986.9 hPa | 0 mm | - | - | - |
| 1778076930 | 7.78° C | 56% | 986.9 hPa | 0 mm | - | - | - |
| 1778076057 | 7.78° C | 50% | 986.5 hPa | 0 mm | - | - | - |
| 1778075127 | 7.22° C | 61% | 985.9 hPa | 0 mm | - | - | - |
| 1778074247 | 6.67° C | 61% | 985.9 hPa | 0 mm | - | - | - |
| 1778073328 | 6.67° C | 61% | 985.9 hPa | 0 mm | - | - | - |
| 1778072454 | 6.11° C | 61% | 985.9 hPa | 0 mm | - | - | - |
| 1778071531 | 6.11° C | 72% | 984.9 hPa | 0 mm | - | - | - |
| 1778070648 | 5.56° C | 72% | 984.9 hPa | 0 mm | - | - | - |
| 1778069731 | 5° C | 72% | 984.9 hPa | 0 mm | - | - | - |
| 1778068861 | 4.44° C | 72% | 984.9 hPa | 0 mm | - | - | - |
| 1778067930 | 3.89° C | 74% | 984.3 hPa | 0 mm | - | - | - |
| 1778067046 | 3.33° C | 74% | 984.3 hPa | 0 mm | - | - | - |
| 1778066128 | 2.78° C | 74% | 984.3 hPa | 0 mm | - | - | - |
| 1778065256 | 2.78° C | 74% | 984.3 hPa | 0 mm | - | - | - |
| 1778064327 | 2.78° C | 71% | 983.7 hPa | 0 mm | - | - | - |
| 1778063445 | 2.78° C | 71% | 984.2 hPa | 0 mm | - | - | - |
| 1778062528 | 2.78° C | 71% | 984.2 hPa | 0 mm | - | - | - |
| 1778061658 | 2.78° C | 71% | 984.2 hPa | 0 mm | - | - | - |
| 1778060728 | 3.33° C | 66% | 983.1 hPa | 0 mm | - | - | - |
| 1778059845 | 3.33° C | 66% | 983.5 hPa | 0 mm | - | - | - |
| 1778058928 | 3.89° C | 66% | 983.5 hPa | 0 mm | - | - | - |
| 1778058058 | 3.89° C | 66% | 983.5 hPa | 0 mm | - | - | - |
| 1778057128 | 3.89° C | 68% | 983 hPa | 0 mm | - | - | - |
* Rain latest hour (hover to see other rain measurements)
** Current wind speed in m/s (hover to see current wind gust speed)